Regional Weather Roundup
Issued by NWS Newport/Morehead, NC

Current Version | Previous Version | Text Only | Print | Product List | Glossary Off
Versions: 1 2 3 4 5 6 7 8 9 10 11 12 13 14 15 16 17 18 19 20 21 22 23 24 25 26 27 28 29 30 31 32 33 34 35 36 37 38 39 40 41 42 43 44 45 46 47 48 49 50
000 ASUS42 KMHX 262113 RWRMHX WEATHER ROUNDUP FOR EASTERN NORTH CAROLINA NATIONAL WEATHER SERVICE NEWPORT/MOREHEAD CITY NC 500 PM EDT FRI AUG 26 2016 NOTE: "FAIR" INDICATES FEW OR NO CLOUDS BELOW 12,000 FEET WITH NO SIGNIFICANT WEATHER AND/OR OBSTRUCTIONS TO VISIBILITY NCZ015>017-031-032-045>047-102-103-262200- NORTH COAST CITY SKY/WX TMP DP RH WIND PRES REMARKS EDENTON SUNNY 93 71 49 S6 30.04S HX 100 ELIZABETH CITY SUNNY 91 71 51 S7 30.04S KITTY HAWK CLEAR 92 78 63 S6 30.04S HX 107 MANTEO SUNNY 85 75 71 S12 30.05S $$ NCZ045>047-081-094-103-104-262200- CENTRAL COAST CITY SKY/WX TMP DP RH WIND PRES REMARKS FRISCO SUNNY 86 69 56 VRB3 30.06F $$ NCZ095-097-098-100-101-262200- SOUTHERN COAST CITY SKY/WX TMP DP RH WIND PRES REMARKS BEAUFORT SUNNY 85 72 65 S7 30.06S CEDAR ISLAND NOT AVBL JACKSONVILLE SUNNY 87 71 58 SE7 30.05S PINEY ISLAND NOT AVBL WILMINGTON SUNNY 87 71 58 SE8 30.05F $$ NCZ011>013-027>030-043-044-078>080-089-090>093-098-262200- COASTAL PLAIN CITY SKY/WX TMP DP RH WIND PRES REMARKS AHOSKIE SUNNY 92 74 55 SE5 30.03S HX 101 CLINTON MOSUNNY 94 74 51 E3 30.03F HX 105 ELIZABETHTOWN SUNNY 93 72 49 CALM 30.03F HX 100 GOLDSBORO MOSUNNY 94 71 47 CALM 30.02S HX 101 GREENVILLE PTSUNNY 95 73 49 SE3 30.05S HX 105 HAVELOCK MOSUNNY 88 73 61 S8 30.06S KENANSVILLE SUNNY 91 73 55 CALM 30.04F HX 100 KINSTON MOSUNNY 93 72 49 S7 30.05S HX 100 NEW BERN SUNNY 90 71 53 E5 30.06S RICHLANDS SUNNY 90 73 57 E5 30.05S ROCKY MOUNT SUNNY 95 73 48 CALM 30.03F HX 104 WASHINGTON SUNNY 91 73 56 SE5 30.04S WHITEVILLE SUNNY 91 71 52 E6 30.03F $$ AMZ130-135-150-152-154-156-158-170-250-252-270-ANZ085-086-088-633-658-670-262200- MARINE OBSERVATIONS STATION/POSITION TIME TEMP WIND PRES WAVE SWELL AIR SEA DIR/SP/G HT/PER HT/PER (UTC) (F) (DEG/KT/KT) (MB) (FT/S) (FT/S) CHESAPEAKE LIGHT NOT AVBL 64 E VA BEACH 2050 81 81 210/ 10/ 12 1017.3 2/ 8 2/ 8 DUCK 2000 84 78 140/ 9/ 9 1017.0 2 E DUCK 2011 81 N/A 2/ 8 OREGON INLET 2000 83 81 180/ 9/ 12 1017.9 13E OREGON INLT 2100 79 N/A 2/ 8 2/ 8 HATTERAS CG 2000 85 82 170/ 4/ 7 1017.9 DIAMOND BUOY 2050 83 87 CALM / 2 1018.1 2/ 8 2/ 8 CAPE LOOKOUT 2100 83 140/ 3/ 4 1017.6 BEAUFORT LAB 2000 83 81 180/ 7/ 8 1017.5 30 SE NEW RVR IN 2008 83 85 90/ 4/ 6 1018.0 30 SE NEW RVR IN 2025 85 N/A 2/ 8 27 SE WRIGHTSVLE 2008 83 84 90/ 4/ 8 1018.2 5 SE WRIGHTSVLE 2008 83 85 140/ 4/ 8 1019.1 225 S CAPE HAT 2050 83 84 60/ 17/ 21 1016.0 7/ 6 3/11 41 SE CHARLESTON 2050 83 83 60/ 14/ 17 1016.6 3/ 8 2/ 8 $$

USA.gov is the U.S. government's official web portal to all federal, state and local government web resources and services.